User: anonymous   Login
Location: Earls Croome
(52.0667°N, 2.2000°W)
Time: 09:57:17
(UTC+00:00)
Language:

Cosmos 1766 Rocket - Orbit

View from above orbital plane
View from above orbital plane
View from above satellite
View from above satellite

Ground track
Ground track

The orbit data is extracted from the following two-line orbital elements,

1 16882U 86055B   20018.63031602 +.00000057 +00000-0 +40060-5 0  9998
2 16882 082.5203 068.4158 0020225 166.6197 308.5074 14.83214669786930
Epoch (UTC): 18 January 2020 15:07:39
Eccentricity: 0.0020225
inclination: 82.5203°
perigee height: 605 km
apogee height: 633 km
right ascension of ascending node: 68.4158°
argument of perigee: 166.6197°
revolutions per day: 14.83214669
mean anomaly at epoch: 308.5074°
orbit number at epoch: 78693

The dashed part of the orbit path shows where the satellite is in the earth's shadow,  

DLR